Starlink 31616

operational
NORAD ID: 59270 Int'l Des: 2024-050 Owner: SPXS Country: US Constellation: starlink
LEOCIRCULAR

Über Starlink 31616

Beschreibung wird geladen...

Live-Position

3D-Globus wird geladen...

Nächste Überflüge

Höhenverlauf

Altitude vs Time

uPlot chart will show altitude changes over time

Zweizeiliger Elementsatz

1 59270U 24050S 25306.51008704 .00004199 00000-0 15393-3 0 9992
2 59270 53.1611 51.9507 0001320 72.0264 288.0881 15.30175873 91078
Epoch: 2. Nov. 2025 • Age: 16 hours

Aktueller Status

Höhe 475.7 km
Geschwindigkeit 7.63 km/s
Subsatellitenpunkt 6.06°N, 111.52°E
Startdatum 19. März 2024
Alter 1.6 years
Typ internet

Technische Details

Klassifizierung Payload
Masse 730.00 kg
Trockenmasse 700.00 kg
Gesamtmasse 730.00 kg
Länge 0.30 m
Durchmesser 4.10 m
Spannweite 29.00 m
Form Box + pan
Hersteller SPXS
Bus-Typ Starlink V2M
Phasenstatus In Orbit
Besitzer/Staat SPXS/US

Große Konstellationen

Loading constellations...